Preview of NWS' New Version of Forecast
This preview is not operational and should not be used for support decisions.
Latest weather observations around

Dallas Love Field (KDAL)

Using English Units (Switch to International System of Units)
Date/ Time (CST) Wind (mph) Vis. (mi) Weather Sky Cond. Temp (°F) Rel. Humidity Wind Chill (°F) Heat Index (°F) Pressure Precip. (in)
Air Dwpt 6 hour Altimeter (inHg) Sea level (inHg) 1 hr 3 hr 6 hr
Max Min
Feb 17 11:53 NNW 9 10 Mostly Cloudy FEW120 SCT220 BKN250 46 33     60% 41   30.01 30.01      
Feb 17 10:53 N 13 10 Mostly Cloudy FEW020 FEW120 BKN220 BKN250 42 32     67% 35   29.99 29.99      
Feb 17 09:53 NNW 15 10 Mostly Cloudy SCT020 BKN220 BKN250 41 32     70% 33   29.98 29.98      
Feb 17 09:47   10 Mostly Cloudy SCT020 BKN220 BKN250 41 32     70%     29.98        
Feb 17 08:53   10 Cloudy OVC015 40 34     79%     29.94 29.94      
Feb 17 07:53 N 14 10 Cloudy FEW009 OVC014 42 37     82% 35   29.9 29.9      
Feb 17 06:53 NNW 14 10 Cloudy FEW008 OVC013 43 39     86% 36   29.88 29.87      
Feb 17 06:17 N 14 10 Cloudy SCT008 OVC010 44 41     89% 37   29.86        
Feb 17 05:53 N 9 9 Cloudy OVC008 44 41     89% 39   29.84 29.83 0   0
Feb 17 04:53 NNW 9 3 Light Drizzle and Fog/Mist OVC005 44 43     96% 39   29.8 29.8 0    
Feb 17 04:48 N 9 3 Light Drizzle and Fog/Mist OVC005 45 43     93% 40   29.8   0    
Feb 17 03:53 N 11 2 Light Drizzle and Fog/Mist OVC003 45 44     97% 39   29.75 29.75 0    
Feb 17 02:53 Calm 2 Light Drizzle and Fog/Mist OVC003 45 44     97%     29.72 29.71 0 0  
Feb 17 01:53 N 7 2 Light Drizzle and Fog/Mist OVC003 45 43     93% 41   29.74 29.73 0    
Feb 17 00:53 Calm 2 Light Drizzle and Fog/Mist OVC003 44 42     93%     29.69 29.69 0    
Feb 16 23:53 SE 3 2 Clear   43 43     100% 41   29.69 29.69 0    
Feb 16 22:53 S 3 2 Light Drizzle and Fog/Mist OVC004 43 42     97% 41   29.7 29.7 0    
Feb 16 22:07 SSE 7 2.5 Light Drizzle and Fog/Mist OVC004 43 42     97% 39   29.68   0    
Feb 16 21:53 SE 14 4 Light Drizzle and Fog/Mist OVC006 43 41     93% 36   29.67 29.67 0    
Feb 16 20:53 SE 11 4 Light Drizzle and Fog/Mist OVC005 42 40     92% 36   29.68 29.67 0 0  
Feb 16 20:09 SE 7 3 Light Drizzle and Fog/Mist OVC006 42 40     92% 38   29.7   0    
Feb 16 19:53 SE 9 2.5 Light Drizzle and Fog/Mist OVC005 41 40     96% 35   29.7 29.7 0    
Feb 16 18:55 SE 9 2.5 Light Drizzle and Fog/Mist OVC008 41 39     93% 35   29.69   0    
Feb 16 18:53 SE 9 3 Fog/Mist OVC008 42 39     89% 37   29.69 29.69      
Feb 16 18:38 SSE 9 5 Fog/Mist OVC009 42 38     85% 37   29.69        
Feb 16 17:53 SE 8 6 Haze OVC011 42 37     82% 37   29.68 29.68     0
Feb 16 16:53 E 5 7 Cloudy OVC013 43 36     76% 40   29.7 29.7      
Feb 16 15:53 Calm 7 Cloudy OVC014 42 36     79%     29.72 29.72      
Feb 16 14:53 Calm 6 Haze OVC013 41 35     79%     29.75 29.75   0  
Feb 16 13:53 Calm 7 Cloudy OVC010 39 34     82%     29.79 29.79      
Feb 16 13:33 Calm 9 Cloudy OVC010 39 34     82%     29.8        
Feb 16 12:53 WNW 3 9 Cloudy OVC009 38 33     82% 36   29.84 29.84 0    
Feb 16 11:53 NNE 3 9 Light Rain OVC009 38 33     82% 36   29.88 29.88 0   0
Feb 16 10:53 6 9 Light Rain OVC008 37 33     85% 32   29.91 29.91 0    
Feb 16 09:53 3 7 Cloudy OVC007 36 32     85% 33   29.92 29.92      
Feb 16 08:53 ENE 5 5 Fog/Mist OVC007 35 32     88% 31   29.95 29.95      
Feb 16 07:53 NNE 6 6 Fog/Mist OVC008 35 31     85% 30   29.94 29.94      
Feb 16 06:53 N 11 8 Cloudy OVC008 35 32     88% 27   29.92 29.92      
Feb 16 05:53 N 7 10 Cloudy OVC008 35 31     85% 29   29.91 29.91      
Feb 16 04:53 N 10 10 Cloudy OVC009 35 31     85% 27   29.9 29.89      
Feb 16 04:30 N 13 10 Cloudy OVC009 36 31     82% 27   29.92        
Feb 16 03:53 N 15 10 Cloudy OVC013 36 31     82% 27   29.94 29.93      
Feb 16 03:28 N 13 10 Cloudy OVC013 36 30     79% 27   29.92        
Feb 16 02:53 N 11 10 Cloudy OVC015 36 29     75% 28   29.92 29.91      
Feb 16 01:53 N 13 10 Cloudy OVC016 37 29     72% 29   29.96 29.96      
Feb 16 00:53   10 Cloudy OVC016 37 29     72%     29.94 29.93      
Feb 15 23:53   10 Mostly Cloudy BKN018 BKN250 38 30     73%     29.95 29.94      
Feb 15 23:23 N 15 10 Mostly Cloudy BKN018 BKN250 38 31     76% 29   29.95        
Feb 15 22:53   10 Mostly Cloudy SCT018 BKN250 39 31     72%     29.94 29.94      
Feb 15 21:53 N 14 10 Partly Cloudy FEW250 SCT300 42 33     70% 35   29.94 29.93      
Feb 15 20:53   10 Partly Cloudy FEW250 SCT300 45 34     65%     29.91 29.9      
Feb 15 19:53 N 8 10 Cloudy SCT250 OVC300 49 36     61% 45   29.88 29.87      
Feb 15 18:53   10 Mostly Cloudy FEW180 SCT250 BKN300 54 39     57%     29.84 29.83      
Feb 15 17:53 NNW 13 10 Cloudy FEW180 BKN250 OVC300 59 42     53%     29.79 29.78      
Feb 15 16:53 NNW 14 10 Cloudy FEW180 BKN250 OVC300 65 45     48%     29.75 29.74      
Feb 15 15:53 NNW 15 10 Cloudy SCT190 BKN250 OVC300 69 48     47%     29.72 29.71      
Feb 15 14:53 N 15 10 Cloudy FEW140 SCT190 OVC250 72 52     49%   71 29.7 29.68      
Feb 15 13:53 NW 13 10 Cloudy FEW140 SCT190 OVC250 74 51     45%   73 29.67 29.65      
Feb 15 12:53 Calm 10 Cloudy FEW140 SCT190 OVC250 72 53     51%   71 29.67 29.65      
Feb 15 11:53 W 5 10 Cloudy FEW140 SCT190 OVC250 68 53     59%     29.7 29.68      
Feb 15 10:53 SSW 7 10 Cloudy FEW140 BKN180 OVC250 64 53     67%     29.69 29.68      
Feb 15 09:53 SSW 6 10 Cloudy FEW140 BKN190 OVC250 60 53     78%     29.71 29.7      
Feb 15 08:53 3 10 Cloudy FEW140 BKN190 OVC250 59 53     81%     29.73 29.72      
Feb 15 07:53 Calm 10 Cloudy SCT150 BKN200 OVC250 54 52     93%     29.71 29.7      
Feb 15 06:53 Calm 10 Cloudy FEW170 OVC250 54 51     90%     29.7 29.68      
Feb 15 05:53 SE 5 10 Mostly Cloudy FEW170 BKN250 54 51     90%     29.71 29.69      
Feb 15 04:53 SSE 8 10 Mostly Cloudy FEW170 BKN250 57 52     83%     29.68 29.67      
Feb 15 03:53 SSE 6 10 Mostly Cloudy SCT170 BKN250 56 52     87%     29.71 29.7      
Feb 15 02:53 SE 9 10 Mostly Cloudy SCT170 BKN250 56 52     87%     29.72 29.7      
Feb 15 01:53 SE 8 10 Mostly Cloudy SCT160 BKN250 56 51     84%     29.73 29.72      
Feb 15 00:53 SE 8 10 Partly Cloudy FEW160 FEW200 SCT250 57 52     83%     29.74 29.72      
Feb 14 23:53 SSE 6 10 Partly Cloudy SCT250 59 53     81%     29.75 29.74      
Feb 14 22:53 S 6 10 Partly Cloudy SCT250 61 53     75%     29.76 29.75      
Feb 14 21:53 S 3 10 Partly Cloudy SCT250 63 54     72%     29.76 29.75      
Feb 14 20:53 SSE 6 10 Partly Cloudy SCT250 66 55     68%     29.76 29.74      
Feb 14 19:53 SE 8 10 Partly Cloudy SCT250 67 54     63%     29.74 29.72      
Feb 14 18:53 SSE 6 10 Mostly Cloudy FEW180 BKN250 68 49     50%     29.73 29.71      
Feb 14 17:53 SSW 6 10 Mostly Cloudy FEW180 BKN250 77 45     32%   76 29.71 29.7      
Feb 14 16:53 SSW 5 10 Mostly Cloudy FEW180 BKN250 79 45     30%   78 29.7 29.69      
Feb 14 15:53 SSW 9 10 Mostly Cloudy FEW180 BKN250 77 45     32%   76 29.69 29.67      
Feb 14 14:53 SSW 10 10 Mostly Cloudy FEW180 BKN250 BKN300 76 45     33%   75 29.68 29.67      
Feb 14 13:53 SW 14 10 Cloudy FEW180 OVC250 76 45     33%   75 29.7 29.69      
Feb 14 12:53 SSW 10 10 Mostly Cloudy FEW180 BKN250 71 49     45%   70 29.74 29.72      
May 14 14:53 SSW 11 10 Mostly Cloudy SCT047 BKN055 BKN200 BKN250 89 67     48%   92 29.92 29.9      
May 14 11:12 SSW 11 10 Mostly Cloudy SCT029 BKN085 BKN250 82 69     65%   85 29.98        
May 14 05:53 S 10 10 Mostly Cloudy BKN016 BKN250 75 70     84%   76 29.97 29.95      
May 13 15:53 SSE 17 10 Partly Cloudy FEW050 SCT070 88 66     48%   90 29.94 29.92      
May 13 04:53 S 11 10 Mostly Clear FEW020 FEW200 75 69     82%   76 29.96 29.94      
Notice The following observation data may not be complete
May 12 18:53   10 Mostly Clear FEW060          %              
May 12 07:53   10 Mostly Cloudy BKN020 75 68     79%   76 29.97 29.94      
May 12 03:53   10 Mostly Cloudy BKN021 74 67     79%   75 29.91 29.89      
Jun 12 06:53 S 8 10 Mostly Clear FEW012 76 72     88%   77 29.92 29.9      
Jun 12 05:53 S 10 10 Mostly Cloudy BKN015 76 72     88%   77 29.91 29.89      
Jun 11 14:53 SSE 17 10 Clear   88 65     47%   90 29.92 29.9      
Jun 11 13:53 S 20 10 Partly Cloudy and Windy SCT044 87 65     48%   89 29.93 29.91      
Jun 11 05:53 S 11 10 Partly Cloudy SCT016 74 69     85%   75 29.9 29.88      
Jun 11 02:53 SSE 15 10 Clear CLR 77 69     77%   78 29.89 29.87      
Jun 10 12:53 S 14 10 Partly Cloudy FEW030 FEW070 SCT250 85 66     53%   87 29.9 29.88      
Jun 09 12:29 SSE 8 10 Cloudy BKN014 BKN060 OVC140 71 65     81%   72 29.94        
Jun 09 07:25   4 Thunderstorms and Heavy Rain SCT029 OVC050 68 62     81%     29.98   0    
Jun 07 15:53 NNW 7 10 Mostly Cloudy FEW055 SCT070 BKN120 BKN250 90 64     42%   91 29.94 29.92      
Jun 06 06:53 N 3 10 Mostly Clear FEW250 71 68     90%   72 29.86 29.83      
Jun 05 20:53 NNE 5 10 Mostly Cloudy FEW040 FEW170 BKN250 77 70     79%   78 29.78 29.75      
Jun 05 16:53 E 6 10 Light Rain FEW025 SCT040 BKN080 BKN130 BKN250 74 71     91%   75 29.76 29.74 0